リニア彗星

252P/LINEAR (2000)

English version
Home page
Updated on July 21, 2011

---------------------------------------------------------------------

・ プロフィール

符号 252P/2000 G1
発見日 2000年4月7日
発見光度 17.9等
発見者 Lincoln Laboratory Near-Earth Asteroid Research project

・ 軌道要素

Epoch 2000 Feb. 26.0 TT = JDT 2451600.5
T 2000 Mar.  9.81037 TT                                 MPC
q   1.0028965            (2000.0)            P               Q
n   0.18404997     Peri.  343.28806     -0.99419229     -0.10195183
a   3.0608747      Node   191.03289     +0.10715442     -0.96748257
e   0.6723497      Incl.   10.37376     -0.00998057     -0.23148068
P   5.36
From 146 observations 2000 Apr. 7-2011 June 10, mean residual 0".71.

・ 星図

・ 光度変化

        m1 = 17.0 + 5 logΔ + 10.0 log r

---------------------------------------------------------------------

軌道要素はM.P.E.C. 2011-L41に掲載されたものです。
星図は StellaNavigator Ver.2.0 for Windows (アストロアーツ編著 / アスキー出版局刊) で作成したものです。
光度グラフはComet for Windowsで作成したものです。

---------------------------------------------------------------------

Copyright(C) Seiichi Yoshida (comet@aerith.net). All rights reserved.